Regional Weather Roundup
Issued by NWS

Home | Current Version | Previous Version | Text Only | Print | Product List | Glossary On
Versions: 1 2 3 4 5 6 7 8 9 10 11 12 13 14 15 16 17 18 19 20 21 22 23 24 25 26 27 28 29 30 31 32 33 34 35 36 37 38 39 40 41 42 43 44 45 46 47 48 49 50
682
ASUS46 KSEW 211610
RWRWA

WASHINGTON REGIONAL WEATHER ROUNDUP
NATIONAL WEATHER SERVICE SEATTLE WA
800 AM PST TUE FEB 21 2017

NOTE:"FAIR" INDICATES FEW OR NO CLOUDS BELOW 12,000 FEET WITH NO
SIGNIFICANT WEATHER AND/OR OBSTRUCTIONS TO VISIBILITY.

WAZ507-509-555>559-211700-
SEATTLE, TACOMA, EVERETT, AND VICINITY

CITY           SKY/WX    TMP DP  RH WIND       PRES   REMARKS
EVERETT        CLOUDY    41  41 100 NW8       29.78R FOG
BOEING FIELD   LGT RAIN  43  43 100 NE3       29.79R
RENTON         LGT RAIN  42  41  96 NW3       29.78R
SEATAC AIRPORT LGT RAIN  42  41  96 N7        29.78R FOG
JBLM-MCCHORD   LGT RAIN  43  43 100 N6        29.79R
PUYALLUP       DRIZZLE   41  41 100 CALM      29.78R
BREMERTON      CLOUDY    43  39  87 CALM      29.82R
JBLM-FT LEWIS  LGT RAIN  43  43 100 NW5       29.79R
TACOMA NARROWS LGT RAIN  42  42 100 CALM      29.79R FOG
$$

WAZ001-503-506-510-514-515-211700-
NORTH INTERIOR

CITY           SKY/WX    TMP DP  RH WIND       PRES   REMARKS
BELLINGHAM     CLOUDY    40  40 100 CALM      29.80R FOG
FRIDAY HARBOR  CLOUDY    42  38  85 N5        29.82R
EASTSOUND      CLOUDY    41  39  93 N12       29.80R
PORT ANGELES   CLOUDY    41  41 100 SE3       29.82R
EDIZ HOOK      CLOUDY    43  39  86 N5        29.82R
PORT TOWNSEND  CLOUDY    43  43 100 NW6       29.81R
NAS WHIDBEY    CLOUDY    44  38  79 N15       29.84R
ARLINGTON      CLOUDY    36  32  87 CALM      29.81R
BURLINGTON     CLOUDY    41  39  93 NW9       29.80R FOG
$$

WAZ020-022-039-040-504-511-512-211700-
SOUTHWEST INTERIOR

CITY           SKY/WX    TMP DP  RH WIND       PRES   REMARKS
SHELTON        CLOUDY    40  38  93 CALM      29.78R
OLYMPIA        LGT RAIN  43  43 100 NW3       29.80R
CHEHALIS       DRIZZLE   45  45 100 NW7       29.79R
KELSO          CLOUDY    43  42  97 NW3       29.80R
VANCOUVER      LGT RAIN  44  44 100 NW5       29.79R
SCAPPOOSE, OR  LGT RAIN  44  43  96 CALM      29.78R
PORTLAND, OR   LGT RAIN  43  42  97 W7        29.79R
$$

WAZ021-516-517-211700-
WASHINGTON COAST

CITY           SKY/WX    TMP DP  RH WIND       PRES   REMARKS
FORKS          MOCLDY    31  31 100 CALM      29.83R
HOQUIAM        MOCLDY    40  39  97 CALM      29.81R
ASTORIA, OR    CLOUDY    43  40  89 NW8       29.82R
$$

WAZ019-023-024-040-567>569-211700-
CASCADE MOUNTAINS AND COLUMBIA GORGE

CITY           SKY/WX    TMP DP  RH WIND       PRES   REMARKS
STAMPEDE PASS  NOT AVBL
TROUTDALE, OR  LGT RAIN  43  41  93 CALM      29.79R
THE DALLES, OR LGT RAIN  39  39 100 CALM      29.74R FOG
$$

WAZ026-027-041>044-520-521-211700-
EAST SLOPES

CITY           SKY/WX    TMP DP  RH WIND       PRES   REMARKS
OMAK           CLOUDY    34  31  88 N9        29.73R FOG
WENATCHEE      LGT SNOW  32  32 100 W3        29.73R FOG
ELLENSBURG     SNOW      34  32  92 CALM      29.70R VSB 1/4
YAKIMA         LGT RAIN  37  35  92 W7        29.72S
SUNNYSIDE ARPT FOG       33  33  99 CALM      29.72R VSB 1/4
$$

WAZ028-034-035-211700-
COLUMBIA BASIN

CITY           SKY/WX    TMP DP  RH WIND       PRES   REMARKS
EPHRATA        LGT RAIN  36  30  79 NW7       29.71R
MOSES LAKE     LGT RAIN  34  32  92 N7        29.72R
PASCO          LGT RAIN  38  36  92 NW5       29.74R FOG
HERMISTON, OR  LGT RAIN  40  40 100 SE3       29.71R FOG
$$

WAZ036>038-211700-
NORTHEAST WASHINGTON

CITY           SKY/WX    TMP DP  RH WIND       PRES   REMARKS
SPOKANE GEIGER SNOW      32  31  96 N5        29.67R VSB 1/2
SPOKANE FELTS  LGT SNOW  33  33 100 CALM      29.69R FOG
FAIRCHILD AFB  LGT SNOW  32  32 100 NE5       29.66R VSB 3/4
COEURDALENE,ID LGT SNOW  32  32 100 N6        29.67R FOG
DEER PARK      LGT SNOW  33  31  92 NW3       29.68R FOG
$$

WAZ029>033-211700-
SOUTHEAST WASHINGTON

CITY           SKY/WX    TMP DP  RH WIND       PRES   REMARKS
PULLMAN        LGT RAIN  38  35  89 CALM      29.65R
LEWISTON, ID   PTSUNNY   43  39  86 NW5       29.65R
WALLA WALLA    LGT RAIN  36  36 100 S12       29.69R VSB 1/4
PENDLETON, OR  LGT RAIN  38  38 100 NW5       29.67R FOG
$$




USA.gov is the U.S. government's official web portal to all federal, state and local government web resources and services.